WS2Z Weather Reports


time (UTC)temp
C
wind
direction
speed
KPH
gust
KPH
rain 1hr
cm
rain 24hr
cm
rain mn
cm
humidity
%
barometer
mb
20260503034004 22 178 1.6 3.2 0.18 0.41 0.41 94 1014.6
20260503033502 22 172 0.0 1.6 0.13 0.38 0.38 94 1014.7
20260503033000 22 159 0.0 1.6 0.18 0.36 0.36 94 1014.8
20260503032458 22 172 0.0 1.6 0.30 0.36 0.36 94 1014.5
20260503031956 22 152 0.0 1.6 0.13 0.33 0.33 94 1014.6
20260503031453 23 164 0.0 1.6 0.18 0.30 0.30 94 1014.6
20260503030949 22 158 0.0 1.6 0.18 0.30 0.30 94 1014.1
20260503030446 22 152 0.0 0.0 0.00 0.28 0.28 94 1013.8
20260503025943 22 89 0.0 0.0 0.00 0.28 0.28 94 1014.1
20260503025440 22 350 0.0 0.0 0.00 0.28 0.28 93 1014.2
20260503024938 22 90 0.0 0.0 0.00 0.28 0.28 94 1014.2
20260503024434 22 95 0.0 0.0 0.00 0.28 0.28 93 1014.3
20260503023931 22 132 0.0 0.0 0.00 0.28 0.28 94 1014.3
20260503023428 22 162 0.0 0.0 0.00 0.28 0.28 94 1014.6
20260503022925 22 159 0.0 0.0 0.00 0.28 0.28 93 1014.5
20260503022420 22 97 0.0 0.0 0.00 0.28 0.28 93 1014.1
20260503021916 22 113 0.0 0.0 0.00 0.28 0.28 93 1014.1
20260503021412 22 137 0.0 0.0 0.00 0.28 0.28 93 1014.1
20260503020910 22 138 0.0 0.0 0.00 0.28 0.28 93 1014.0
20260503020407 22 147 0.0 0.0 0.00 0.28 0.28 93 1014.4
20260503015903 22 146 0.0 0.0 0.00 0.28 0.28 93 1014.2
20260503015401 22 163 0.0 0.0 0.00 0.28 0.28 93 1014.2
20260503014856 22 149 0.0 0.0 0.00 0.28 0.28 93 1014.2
20260503014354 22 152 0.0 0.0 0.00 0.28 0.28 93 1014.0
20260503013852 22 126 0.0 0.0 0.00 0.28 0.28 93 1013.9
20260503013348 22 154 1.6 3.2 0.00 0.28 0.28 93 1013.8
20260503012845 22 131 0.0 3.2 0.00 0.28 0.28 93 1014.0
20260503012343 22 144 0.0 0.0 0.00 0.28 0.28 93 1014.0
20260503011840 22 126 0.0 0.0 0.00 0.28 0.28 93 1013.9
20260503011337 22 264 0.0 0.0 0.00 0.28 0.28 93 1013.9
20260503010833 22 266 0.0 0.0 0.00 0.28 0.28 93 1013.9
20260503010330 22 269 0.0 0.0 0.00 0.28 0.28 92 1013.9
20260503005827 22 267 0.0 1.6 0.00 0.28 0.28 92 1013.9
20260503005325 22 279 3.2 3.2 0.00 0.28 0.28 93 1013.9
20260503004821 22 314 0.0 0.0 0.00 0.28 0.28 92 1013.9
20260503004318 22 312 1.6 1.6 0.00 0.28 0.28 92 1013.8
20260503003816 22 320 1.6 3.2 0.00 0.28 0.28 92 1013.7
20260503003313 22 299 3.2 3.2 0.00 0.28 0.28 92 1013.8
20260503002809 22 51 0.0 0.0 0.00 0.28 0.28 92 1013.8
20260503002307 22 346 0.0 1.6 0.00 0.28 0.28 92 1013.9
20260503001803 22 303 0.0 0.0 0.00 0.28 0.28 92 1014.0
20260503001259 22 47 0.0 0.0 0.00 0.28 0.28 91 1013.6
20260503000757 22 238 0.0 4.8 0.00 0.28 0.28 91 1013.7
20260503000254 22 260 3.2 3.2 0.00 0.28 0.28 91 1013.6
20260502235751 22 296 1.6 3.2 0.00 0.28 0.28 90 1013.5
20260502235249 22 267 3.2 4.8 0.13 0.28 0.28 89 1013.5
20260502234745 22 44 1.6 11.3 1.50 0.28 0.28 88 1013.2
20260502234242 23 346 4.8 20.9 1.55 0.25 0.25 84 1013.4
20260502233738 25 300 8.0 14.5 0.00 0.00 0.00 76 1013.5
20260502233235 26 352 16.1 20.9 0.00 0.00 0.00 73 1013.5
20260502232731 27 278 4.8 6.4 0.00 0.00 0.00 81 1012.8
20260502232228 27 158 3.2 9.7 0.00 0.00 0.00 81 1012.8
20260502231725 27 209 1.6 14.5 0.00 0.00 0.00 81 1012.7
20260502231222 27 300 3.2 11.3 0.00 0.00 0.00 80 1012.6
20260502230721 27 161 0.0 3.2 0.00 0.00 0.00 80 1012.6
20260502230219 27 188 4.8 6.4 0.00 0.00 0.00 79 1012.5
20260502225714 27 265 3.2 11.3 0.00 0.00 0.00 79 1012.5
20260502225212 27 186 0.0 4.8 0.00 0.00 0.00 78 1012.3
20260502224708 27 252 6.4 11.3 0.00 0.00 0.00 78 1012.3
20260502224205 28 235 4.8 12.9 0.00 0.00 0.00 79 1012.2
20260502223702 28 225 6.4 11.3 0.00 0.00 0.00 78 1012.1
20260502223201 28 277 1.6 14.5 0.00 0.00 0.00 78 1012.1
20260502222658 28 260 1.6 11.3 0.00 0.00 0.00 77 1012.0
20260502222154 28 219 4.8 12.9 0.00 0.00 0.00 76 1011.9
20260502221650 28 222 3.2 9.7 0.00 0.00 0.00 75 1011.9
20260502221147 28 236 3.2 11.3 0.00 0.00 0.00 74 1012.0
20260502220643 28 224 4.8 12.9 0.00 0.00 0.00 73 1012.1
20260502220139 28 190 4.8 11.3 0.00 0.00 0.00 73 1011.8
20260502215637 28 266 6.4 9.7 0.00 0.00 0.00 73 1011.8
20260502215133 28 171 0.0 11.3 0.00 0.00 0.00 73 1012.0
20260502214631 28 332 3.2 11.3 0.00 0.00 0.00 71 1011.8
20260502214128 29 258 6.4 20.9 0.00 0.00 0.00 69 1011.7
20260502213625 30 247 1.6 6.4 0.00 0.00 0.00 66 1011.7
20260502213122 31 282 3.2 9.7 0.00 0.00 0.00 65 1011.6
20260502212621 30 277 9.7 16.1 0.00 0.00 0.00 65 1011.4
20260502212119 31 229 11.3 14.5 0.00 0.00 0.00 63 1011.8
20260502211614 31 84 3.2 6.4 0.00 0.00 0.00 63 1011.6
20260502211112 30 185 3.2 11.3 0.00 0.00 0.00 65 1011.5
20260502210609 30 253 4.8 6.4 0.00 0.00 0.00 65 1011.7
20260502210106 30 179 3.2 12.9 0.00 0.00 0.00 66 1011.4
20260502205602 31 272 8.0 16.1 0.00 0.00 0.00 62 1011.6
20260502205059 31 275 6.4 9.7 0.00 0.00 0.00 62 1011.8
20260502204556 31 272 6.4 14.5 0.00 0.00 0.00 62 1011.6
20260502204054 31 282 6.4 14.5 0.00 0.00 0.00 61 1011.4
20260502203551 31 289 9.7 20.9 0.00 0.00 0.00 61 1011.3
20260502203048 32 261 9.7 11.3 0.00 0.00 0.00 57 1011.3
20260502202543 31 249 6.4 9.7 0.00 0.00 0.00 57 1011.2
20260502202042 31 290 4.8 6.4 0.00 0.00 0.00 58 1011.3
20260502201538 31 180 3.2 6.4 0.00 0.00 0.00 58 1011.2
20260502201034 32 279 6.4 9.7 0.00 0.00 0.00 58 1011.2
20260502200530 32 220 3.2 9.7 0.00 0.00 0.00 57 1011.2
20260502200028 31 237 6.4 11.3 0.00 0.00 0.00 59 1011.1
20260502195526 31 264 4.8 11.3 0.00 0.00 0.00 62 1011.1
20260502195021 31 265 3.2 14.5 0.00 0.00 0.00 58 1011.3
20260502194518 31 214 3.2 9.7 0.00 0.00 0.00 59 1011.4
20260502194014 31 286 3.2 12.9 0.00 0.00 0.00 59 1011.5
20260502193512 31 212 4.8 12.9 0.00 0.00 0.00 57 1011.4
20260502193009 32 286 6.4 17.7 0.00 0.00 0.00 56 1011.6
20260502192505 31 233 4.8 11.3 0.00 0.00 0.00 57 1011.7
20260502192002 31 179 6.4 9.7 0.00 0.00 0.00 57 1011.8
20260502191459 31 58 3.2 14.5 0.00 0.00 0.00 58 1011.8
20260502190956 31 305 11.3 16.1 0.00 0.00 0.00 57 1011.8
20260502190454 32 290 8.0 11.3 0.00 0.00 0.00 57 1012.0
20260502185950 31 271 9.7 12.9 0.00 0.00 0.00 57 1012.1
20260502185446 31 292 9.7 12.9 0.00 0.00 0.00 54 1012.0
20260502184942 31 261 9.7 17.7 0.00 0.00 0.00 56 1012.0
20260502184438 32 272 11.3 14.5 0.00 0.00 0.00 54 1012.0
20260502183934 31 263 6.4 11.3 0.00 0.00 0.00 54 1011.9
20260502183431 31 263 6.4 17.7 0.00 0.00 0.00 54 1012.2
20260502182926 32 268 6.4 12.9 0.00 0.00 0.00 55 1012.2
20260502182422 32 279 3.2 11.3 0.00 0.00 0.00 58 1012.2
20260502181918 32 281 8.0 12.9 0.00 0.00 0.00 55 1012.2
20260502181417 32 245 3.2 12.9 0.00 0.00 0.00 56 1012.4
20260502180915 31 166 4.8 9.7 0.00 0.00 0.00 57 1012.3
20260502180412 31 151 3.2 12.9 0.00 0.00 0.00 58 1012.3
20260502170330 31 173 6.4 14.5 0.00 0.00 0.00 61 1012.9
20260502164318 31 240 8.0 14.5 0.00 0.00 0.00 62 1012.4
20260502163814 31 290 3.2 11.3 0.00 0.00 0.00 64 1012.3
20260502163310 31 246 8.0 14.5 0.00 0.00 0.00 65 1012.5
20260502162808 31 277 4.8 11.3 0.00 0.00 0.00 67 1012.7
20260502162305 31 224 6.4 11.3 0.00 0.00 0.00 66 1012.5
20260502161801 31 308 3.2 9.7 0.00 0.00 0.00 65 1012.7
20260502161257 31 201 8.0 11.3 0.00 0.00 0.00 65 1012.7
20260502160755 31 172 1.6 4.8 0.00 0.00 0.00 66 1012.8
20260502160254 31 301 4.8 9.7 0.00 0.00 0.00 66 1012.5
20260502152223 30 171 1.6 9.7 0.00 0.00 0.00 70 1012.5
20260502151721 30 178 3.2 12.9 0.00 0.00 0.00 69 1012.5
20260502151218 30 186 1.6 6.4 0.00 0.00 0.00 70 1012.6
20260502150715 30 151 0.0 11.3 0.00 0.00 0.00 70 1012.7
20260502150212 30 188 8.0 11.3 0.00 0.00 0.00 69 1012.7
20260502130600 26 197 1.6 4.8 0.00 0.00 0.00 86 1011.8
20260502123543 23 172 0.0 4.8 0.00 0.00 0.00 90 1011.9
20260502123040 23 140 0.0 3.2 0.00 0.00 0.00 90 1011.7
20260502122536 23 193 0.0 1.6 0.00 0.00 0.00 91 1011.8
20260502122034 22 175 0.0 4.8 0.00 0.00 0.00 91 1011.8
20260502121531 22 183 1.6 1.6 0.00 0.00 0.00 92 1011.9
20260502121029 22 210 0.0 3.2 0.00 0.00 0.00 92 1011.8
20260502120525 22 136 0.0 1.6 0.00 0.00 0.00 92 1011.9
20260502115520 22 190 0.0 3.2 0.00 0.00 0.00 93 1011.8
20260502115015 21 190 0.0 3.2 0.00 0.00 0.00 92 1011.8
20260502114512 21 125 1.6 3.2 0.00 0.00 0.00 92 1011.7
20260502114009 21 165 0.0 3.2 0.00 0.00 0.00 93 1011.6
20260502113507 21 173 3.2 3.2 0.00 0.00 0.00 93 1011.7
20260502113005 21 205 0.0 3.2 0.00 0.00 0.00 93 1011.6
20260502112502 21 203 0.0 1.6 0.00 0.00 0.00 93 1011.6
20260502112000 22 152 1.6 6.4 0.00 0.00 0.00 93 1011.6
20260502111457 21 133 0.0 0.0 0.00 0.00 0.00 93 1011.8
20260502110954 21 137 0.0 0.0 0.00 0.00 0.00 93 1011.8
20260502110452 21 140 0.0 0.0 0.00 0.00 0.00 93 1011.7
20260502105949 21 106 0.0 1.6 0.00 0.00 0.00 93 1011.6
20260502105446 21 138 0.0 0.0 0.00 0.00 0.00 93 1011.4
20260502104944 21 128 0.0 0.0 0.00 0.00 0.00 93 1011.5
20260502104441 21 134 0.0 0.0 0.00 0.00 0.00 93 1011.7
20260502103938 21 138 0.0 0.0 0.00 0.00 0.00 93 1011.5
20260502103436 21 135 0.0 0.0 0.00 0.00 0.00 93 1011.6
20260502102933 21 131 0.0 0.0 0.00 0.00 0.00 93 1011.4
20260502102429 21 133 0.0 0.0 0.00 0.00 0.00 93 1011.6
20260502101926 21 134 0.0 0.0 0.00 0.00 0.00 92 1011.7
20260502101425 21 137 0.0 0.0 0.00 0.00 0.00 92 1011.8
20260502100922 21 111 0.0 1.6 0.00 0.00 0.00 92 1011.6
20260502100422 21 143 0.0 0.0 0.00 0.00 0.00 92 1011.6
20260502091355 21 135 0.0 0.0 0.00 0.00 0.00 92 1011.8
20260502090853 21 125 0.0 3.2 0.00 0.00 0.00 92 1011.9
20260502090350 21 137 0.0 1.6 0.00 0.00 0.00 92 1011.8
20260502071245 21 144 0.0 0.0 0.00 0.00 0.00 93 1012.2
20260502070743 21 136 0.0 1.6 0.00 0.00 0.00 93 1012.0
20260502070240 21 109 0.0 4.8 0.00 0.00 0.00 93 1012.3
20260502065739 21 136 0.0 0.0 0.00 0.00 0.00 94 1012.4
20260502065236 21 65 4.8 6.4 0.00 0.00 0.00 94 1012.5
20260502064735 20 107 1.6 3.2 0.00 0.00 0.00 94 1012.2
20260502064232 20 136 0.0 1.6 0.00 0.00 0.00 94 1012.0
20260502063729 20 113 0.0 1.6 0.00 0.00 0.00 94 1012.2
20260502063227 19 94 0.0 1.6 0.00 0.00 0.00 92 1012.2
20260502062724 20 74 0.0 0.0 0.00 0.00 0.00 93 1012.2
20260502062222 20 58 0.0 0.0 0.00 0.00 0.00 93 1012.0
20260502061720 20 99 0.0 0.0 0.00 0.00 0.00 93 1012.1
20260502061217 20 99 0.0 0.0 0.00 0.00 0.00 93 1012.1
20260502060712 20 99 0.0 0.0 0.00 0.00 0.00 93 1012.0
20260502060209 20 99 0.0 0.0 0.00 0.00 0.00 92 1012.1
20260502055707 20 99 0.0 0.0 0.00 0.00 0.00 92 1011.9
20260502055204 20 99 0.0 0.0 0.00 0.00 0.00 92 1012.0
20260502054703 20 97 0.0 0.0 0.00 0.00 0.00 92 1012.1
20260502054200 20 74 0.0 0.0 0.00 0.00 0.00 92 1011.9
20260502053657 20 60 0.0 0.0 0.00 0.00 0.00 92 1011.9
20260502053154 20 62 0.0 0.0 0.00 0.00 0.00 91 1012.2
20260502052652 20 91 0.0 0.0 0.00 0.00 0.00 91 1012.0
20260502052150 20 106 0.0 0.0 0.00 0.00 0.00 91 1012.1
20260502051648 20 106 0.0 0.0 0.00 0.00 0.00 91 1012.2
20260502051146 20 106 0.0 0.0 0.00 0.00 0.00 91 1012.4
20260502050642 20 106 0.0 0.0 0.00 0.00 0.00 91 1012.0
20260502050139 20 106 0.0 0.0 0.00 0.00 0.00 90 1012.4
20260502045635 20 106 0.0 0.0 0.00 0.00 0.00 90 1012.2
20260502045133 21 107 0.0 0.0 0.00 0.00 0.00 90 1012.2
20260502044629 21 130 0.0 0.0 0.00 0.00 0.00 90 1012.1
20260502044126 21 140 0.0 0.0 0.00 0.00 0.00 90 1012.1
20260502043624 21 140 0.0 0.0 0.00 0.00 0.00 90 1012.2
20260502043121 21 142 0.0 0.0 0.00 0.00 0.00 91 1012.2
20260502042620 21 143 0.0 0.0 0.00 0.00 0.00 91 1012.2
20260502042118 21 143 0.0 0.0 0.00 0.00 0.00 90 1012.1
20260502041616 21 143 0.0 0.0 0.00 0.00 0.00 89 1012.2
20260502041113 21 143 0.0 0.0 0.00 0.00 0.00 89 1012.3
20260502040609 21 143 0.0 0.0 0.00 0.00 0.00 89 1012.5
20260502040107 21 143 0.0 0.0 0.00 0.00 0.00 88 1012.3
20260502035602 21 143 0.0 0.0 0.00 0.00 0.00 88 1012.3
20260502035100 21 143 0.0 0.0 0.00 0.00 0.00 88 1012.4
20260502034557 22 143 0.0 0.0 0.00 0.00 0.00 87 1012.7